Wind_Speed
2 4 9 8 6 10 8 7 5 8 8 7 8 7 7 8 30 29 27 24 22 24 26 21 32 34 34 34 32 33 35 33 36 37 37 37 36 34 31 27 24 22 18 15
3 5 7 7 8 6 5 10 13 11 13 10 24 28 18 18 32 29 31 30 25 24 26 30 27 30 30 31 31 32 34 37 38 38 38 37 35 32 29 26 24 21 17 16
3 4 7 9 4 4 5 5 5 6 3 9 9 11 16 15 25 34 35 31 28 26 26 30 30 29 29 31 31 35 38 40 40 40 38 36 33 32 30 27 24 20 18 17
3 2 5 6 3 5 7 5 7 8 11 12 14 22 14 27 26 26 37 33 31 29 28 30 31 31 31 32 36 38 41 41 41 40 36 33 33 31 29 26 23 20 18 16
4 3 6 9 6 2 4 3 6 7 10 17 28 14 11 30 30 27 30 36 33 31 30 30 31 33 33 33 36 38 40 40 40 38 35 33 32 31 29 26 23 20 18 16
2 3 7 3 8 21 8 2 9 15 12 15 20 5 5 35 29 26 16 33 35 33 30 28 28 31 35 34 35 37 39 39 38 37 33 33 31 31 29 25 21 19 18 16
4 4 6 5 11 9 4 3 12 14 13 15 5 7 21 26 23 20 17 28 30 29 29 28 26 29 33 33 34 37 38 38 36 34 32 30 30 29 26 24 22 19 18 16
3 3 8 14 7 4 3 12 11 11 13 13 13 19 24 24 24 15 10 18 21 24 24 24 25 28 30 33 35 37 37 36 34 30 28 29 30 28 25 23 22 20 19 16
6 4 6 16 14 11 5 3 7 7 6 8 12 16 20 25 22 21 7 10 15 19 20 22 24 27 29 33 36 37 37 36 31 28 30 31 30 28 27 25 23 22 20 17
5 5 8 12 2 5 8 6 6 8 12 12 10 12 17 19 23 20 8 11 15 18 18 19 23 25 28 32 36 37 35 33 31 33 33 30 28 27 27 25 24 21 18 14
2 16 10 17 16 13 17 13 12 10 10 11 15 13 15 20 21 22 16 10 18 18 17 18 22 24 27 31 36 35 34 32 35 36 34 31 29 27 26 23 20 19 16 17
2 8 2 10 13 15 15 16 15 14 15 14 18 20 20 22 21 22 15 20 21 18 18 18 23 23 29 31 36 36 35 35 38 38 36 33 33 31 27 21 20 19 19 19
5 13 14 14 14 13 16 19 20 21 21 21 23 23 23 26 26 22 20 19 13 23 22 22 24 23 30 32 36 36 36 36 38 38 37 36 34 32 30 27 25 24 23 21
18 16 19 20 22 21 21 20 20 20 21 21 20 21 23 24 25 20 15 19 20 16 26 26 28 26 30 34 35 37 36 35 38 39 39 36 34 30 28 25 26 27 26 23
18 15 14 10 13 16 18 19 20 20 21 21 21 24 25 24 20 21 22 19 23 20 26 28 30 31 31 37 37 39 38 37 37 37 38 36 33 30 26 24 24 23 23 21
7 7 10 14 17 21 23 25 27 29 28 26 23 21 21 23 23 22 22 24 26 24 26 28 31 36 36 37 41 40 40 37 35 36 38 37 34 31 28 24 21 19 19 17
5 7 13 14 14 17 19 23 26 29 31 31 30 29 30 28 29 26 23 20 23 22 21 31 37 38 39 43 42 43 43 39 36 35 38 38 37 32 28 25 21 19 17 15
3 4 5 6 11 16 20 22 25 27 26 29 31 33 36 35 35 38 34 28 29 26 23 23 30 36 42 43 44 45 45 41 38 36 38 39 37 33 30 27 23 20 19 16
2 2 6 9 13 18 23 27 27 27 29 29 30 29 27 28 30 34 33 30 36 30 28 26 27 35 39 44 47 47 44 43 39 37 38 38 38 36 32 30 27 23 20 19
3 5 9 12 15 19 22 24 26 30 30 30 27 28 32 33 35 37 36 33 32 36 31 30 28 32 37 43 49 47 48 46 39 41 42 42 40 38 34 32 27 23 23 21
10 10 13 15 17 22 26 28 30 30 28 29 30 32 33 32 33 35 37 40 34 29 28 27 31 34 37 41 48 50 50 46 43 45 46 43 40 38 35 33 27 25 26 24
12 11 14 19 19 23 28 28 26 27 29 27 27 29 31 31 31 32 32 37 39 37 30 29 34 36 39 43 50 52 51 48 43 47 47 43 40 39 37 32 28 26 26 22
11 13 14 17 20 22 23 26 26 26 28 27 28 28 29 31 30 33 34 26 23 26 30 31 34 38 40 44 53 55 54 47 45 47 46 42 42 40 37 27 24 28 25 21
11 14 18 22 21 20 25 27 28 27 28 27 26 26 29 32 31 23 19 18 17 16 21 29 33 40 43 49 55 54 51 45 45 45 45 43 42 39 33 26 26 26 23 20
17 19 21 20 21 21 25 26 28 28 27 25 25 27 32 29 25 22 19 18 19 20 23 27 35 38 43 47 51 53 48 45 45 43 42 42 44 36 29 29 25 26 24 21
21 18 18 19 22 23 26 25 27 26 25 25 26 29 33 30 24 19 19 20 19 17 18 19 29 35 41 45 47 45 44 44 42 38 41 43 37 32 32 27 27 25 24 21
18 18 23 23 21 25 25 27 26 26 25 26 29 33 31 26 26 22 19 19 17 16 17 15 22 32 39 42 42 42 41 39 38 40 43 39 34 33 28 26 27 26 25 23
Wind_Direction
228 246 243 253 213 225 206 225 196 257 248 236 257 265 298 199 173 183 191 198 202 201 197 191 200 203 208 207 206 211 207 208 208 206 212 214 215 216 218 222 227 223 223 227
306 293 295 290 284 249 251 235 245 254 258 235 250 265 268 205 189 195 193 199 205 209 206 206 197 192 204 206 199 209 207 203 204 206 209 212 214 216 218 223 220 218 220 231
254 297 314 286 216 267 283 295 244 262 328 16 6 336 317 290 202 200 199 201 207 212 206 205 207 211 205 199 197 201 207 202 203 207 210 211 220 216 220 219 214 214 221 235
187 82 248 247 193 263 282 59 57 50 21 10 339 318 27 26 13 217 203 202 209 208 204 205 203 203 203 200 200 204 202 202 205 210 212 215 217 221 215 211 211 216 224 234
133 203 287 297 304 308 51 42 35 59 26 6 354 333 11 3 355 332 222 209 210 213 208 205 206 204 201 198 199 200 203 204 207 212 213 221 218 213 209 207 209 214 224 233
129 172 223 178 216 271 307 173 44 61 34 14 27 30 308 348 353 338 221 211 203 202 203 206 207 207 208 206 204 208 211 210 213 213 215 219 218 209 204 205 211 211 219 229
162 218 272 336 332 348 201 199 73 69 53 32 44 352 332 352 2 2 192 192 195 198 203 205 206 206 206 210 208 207 208 210 211 212 217 219 208 203 202 203 206 209 218 225
132 179 271 347 37 74 129 86 75 58 44 28 11 357 355 358 12 13 170 176 186 194 196 200 205 206 204 202 201 204 206 209 210 216 213 205 201 199 202 204 204 210 216 222
164 204 122 79 87 49 57 114 91 53 36 19 4 359 355 348 358 19 229 207 191 204 197 202 207 208 204 200 202 205 208 212 216 213 205 198 198 201 200 205 210 212 218 223
110 227 208 156 235 8 323 100 84 30 20 14 4 352 341 343 342 358 17 220 208 204 203 206 208 209 211 206 208 210 213 212 212 201 199 201 204 205 205 207 211 215 216 212
326 31 72 37 34 7 9 13 16 355 339 341 354 350 347 336 331 327 343 239 225 219 217 216 213 211 211 212 211 211 213 212 202 200 204 201 202 204 209 214 222 219 213 206
246 351 50 331 339 340 343 348 351 356 345 328 317 327 325 321 316 314 309 309 226 223 221 220 216 215 212 218 215 214 212 207 204 205 205 205 200 196 200 211 209 212 219 226
350 339 335 338 342 345 336 329 325 322 320 318 303 310 306 306 307 296 293 297 309 251 235 228 221 214 214 222 218 217 219 214 211 209 208 206 205 206 203 201 201 210 220 226
307 318 320 317 318 320 318 317 311 305 301 298 295 298 299 302 307 282 264 285 288 261 237 229 221 214 217 224 220 219 222 225 219 213 213 210 212 212 214 216 213 211 216 224
286 290 300 327 335 335 325 326 327 328 334 318 299 302 310 306 307 302 282 280 283 263 240 233 224 216 219 224 226 220 221 223 223 218 218 215 214 215 217 220 222 221 220 224
292 309 316 320 315 314 315 311 310 304 302 304 312 310 299 289 301 308 287 285 286 262 246 233 230 220 219 224 222 219 222 227 226 218 216 215 215 214 213 212 212 214 210 207
283 297 299 313 330 336 342 344 332 311 300 295 292 297 294 287 280 293 290 286 286 266 264 246 236 231 229 222 223 220 221 221 222 216 215 213 216 216 216 215 213 209 209 215
234 287 306 326 332 327 326 324 335 333 316 309 299 287 285 286 289 288 294 281 271 279 260 255 251 231 223 226 227 224 220 218 217 217 213 211 212 215 214 216 215 215 214 212
230 342 354 327 323 316 313 313 314 321 323 320 312 300 295 292 285 284 286 274 263 257 263 256 248 244 237 232 227 218 219 217 213 216 213 210 209 210 210 214 217 218 220 220
280 278 285 290 294 299 303 315 312 299 307 314 310 303 295 285 281 286 275 280 256 257 268 260 251 243 239 235 224 222 222 216 215 215 209 208 210 210 210 212 212 215 219 218
257 272 283 296 303 311 310 316 319 312 313 315 309 307 306 301 292 286 281 272 257 251 256 259 245 243 242 232 226 219 217 213 210 214 210 209 208 208 206 207 209 215 219 218
261 269 289 299 304 309 315 315 315 315 315 316 315 314 314 311 310 304 289 272 263 256 254 251 242 237 237 235 224 221 218 217 216 211 210 209 206 206 204 204 210 215 219 219
256 276 287 290 301 312 321 327 325 318 311 317 321 315 311 312 310 305 300 290 275 254 243 245 243 239 234 230 225 218 215 217 211 208 209 210 208 207 202 215 208 215 213 211
261 280 282 289 296 312 324 333 328 323 314 309 307 314 315 317 316 319 304 297 284 265 249 245 244 235 229 224 218 214 209 213 203 206 206 207 206 199 213 206 210 214 210 205
270 280 287 291 296 298 315 319 320 316 316 305 297 311 320 321 312 316 315 304 290 273 258 249 240 230 221 219 215 210 214 206 204 205 204 200 200 211 200 202 209 209 201 196
270 271 266 286 288 292 304 310 322 314 312 301 299 310 317 320 321 315 308 304 300 284 268 258 243 233 221 212 211 213 207 207 205 202 200 203 208 197 196 200 206 197 191 185
284 271 274 293 278 286 295 305 317 316 308 305 305 309 313 320 328 322 312 305 304 289 274 262 242 223 216 213 213 210 210 211 204 200 202 206 200 194 194 197 197 188 184 181
Height
1482 1483 1483 1485 1488 1488 1495 1498 1510 1501 1499 1491 1486 1483 1483 1482 1482 1482 1484 1488 1492 1496 1500 1502 1503 1506 1509 1513 1518 1521 1526 1530 1532 1537 1541 1545 1549 1553 1557 1560 1562 1564 1565 1567
1487 1483 1483 1486 1483 1484 1485 1486 1487 1489 1490 1478 1476 1475 1476 1479 1476 1476 1477 1482 1486 1490 1494 1498 1501 1502 1506 1509 1514 1517 1519 1523 1528 1533 1536 1540 1545 1550 1553 1555 1557 1560 1562 1563
1500 1486 1488 1499 1483 1481 1482 1482 1484 1492 1489 1482 1481 1478 1476 1472 1471 1471 1472 1476 1481 1484 1487 1493 1498 1501 1503 1506 1510 1512 1515 1520 1524 1526 1531 1536 1541 1545 1548 1550 1554 1556 1559 1558
1504 1491 1519 1486 1471 1475 1479 1483 1483 1484 1486 1484 1482 1476 1475 1473 1472 1469 1466 1471 1475 1478 1482 1488 1493 1497 1501 1504 1506 1508 1512 1516 1519 1522 1527 1532 1536 1540 1544 1548 1550 1552 1554 1554
1510 1507 1492 1480 1477 1477 1482 1488 1485 1485 1485 1484 1476 1471 1470 1471 1469 1468 1468 1464 1467 1470 1475 1480 1488 1493 1497 1501 1503 1507 1509 1511 1515 1519 1524 1528 1532 1535 1540 1544 1547 1549 1551 1552
1502 1510 1508 1481 1475 1473 1472 1492 1488 1487 1488 1486 1480 1489 1483 1475 1470 1460 1455 1460 1463 1468 1473 1477 1482 1489 1494 1498 1501 1503 1505 1508 1511 1516 1521 1526 1529 1533 1536 1540 1543 1545 1547 1549
1505 1507 1490 1475 1472 1472 1488 1501 1489 1490 1490 1489 1488 1491 1486 1480 1475 1467 1459 1461 1465 1468 1470 1474 1478 1484 1490 1496 1500 1501 1503 1507 1511 1515 1519 1523 1527 1531 1535 1537 1540 1542 1543 1546
1500 1505 1502 1477 1475 1484 1490 1488 1489 1489 1489 1489 1489 1486 1483 1480 1478 1475 1469 1468 1470 1473 1474 1476 1479 1483 1488 1493 1498 1500 1502 1506 1510 1514 1517 1520 1524 1529 1533 1536 1538 1540 1541 1543
1481 1486 1480 1480 1482 1486 1487 1487 1488 1488 1489 1489 1489 1487 1485 1482 1481 1479 1475 1471 1469 1475 1477 1478 1480 1482 1487 1492 1495 1497 1500 1504 1509 1512 1513 1517 1522 1526 1529 1533 1535 1537 1538 1540
1475 1473 1475 1477 1481 1485 1485 1485 1486 1487 1488 1488 1488 1487 1487 1484 1480 1480 1479 1474 1473 1475 1475 1477 1479 1483 1486 1489 1492 1495 1499 1502 1506 1509 1512 1516 1521 1524 1526 1528 1531 1533 1534 1536
1476 1476 1472 1478 1481 1485 1484 1484 1484 1484 1485 1486 1486 1485 1486 1485 1481 1479 1477 1479 1474 1473 1471 1472 1477 1481 1484 1485 1488 1493 1497 1500 1503 1507 1510 1514 1518 1521 1523 1526 1528 1529 1530 1532
1482 1480 1481 1482 1483 1483 1483 1482 1482 1482 1482 1483 1483 1482 1482 1481 1480 1477 1474 1477 1475 1468 1468 1467 1472 1478 1481 1482 1485 1490 1494 1497 1500 1504 1507 1511 1513 1516 1520 1524 1526 1528 1530 1531
1477 1477 1478 1479 1479 1480 1481 1481 1480 1480 1480 1479 1478 1478 1477 1475 1474 1474 1474 1471 1469 1466 1464 1465 1467 1473 1476 1478 1480 1486 1490 1494 1498 1502 1504 1506 1509 1512 1513 1518 1522 1525 1527 1528
1473 1474 1474 1475 1475 1476 1476 1476 1476 1476 1475 1474 1473 1473 1472 1470 1468 1466 1467 1467 1464 1464 1463 1461 1462 1464 1469 1473 1474 1480 1485 1489 1493 1497 1500 1503 1506 1509 1512 1513 1516 1518 1522 1524
1470 1471 1473 1473 1472 1471 1471 1470 1470 1470 1470 1469 1468 1467 1466 1465 1464 1464 1461 1460 1459 1458 1458 1456 1457 1457 1458 1465 1466 1472 1476 1480 1487 1493 1496 1500 1503 1506 1509 1511 1512 1514 1516 1518
1467 1468 1469 1470 1470 1470 1469 1469 1467 1466 1465 1463 1461 1460 1459 1458 1456 1456 1456 1455 1452 1450 1451 1450 1450 1452 1452 1452 1456 1464 1467 1470 1477 1485 1491 1494 1496 1500 1503 1505 1506 1508 1510 1512
1465 1466 1467 1468 1468 1468 1468 1467 1466 1463 1460 1458 1456 1454 1452 1450 1449 1448 1449 1449 1447 1444 1444 1444 1444 1445 1447 1449 1451 1450 1457 1463 1468 1476 1483 1487 1489 1493 1496 1498 1501 1503 1505 1507
1462 1464 1465 1466 1466 1466 1464 1463 1462 1458 1455 1451 1448 1445 1443 1443 1441 1439 1439 1441 1440 1439 1437 1437 1437 1438 1439 1441 1443 1446 1451 1455 1460 1465 1473 1479 1483 1487 1491 1493 1495 1496 1500 1503
1460 1462 1462 1463 1463 1462 1461 1458 1456 1453 1449 1446 1442 1438 1436 1434 1432 1431 1431 1428 1428 1429 1430 1430 1430 1432 1433 1434 1436 1441 1445 1448 1454 1458 1464 1472 1478 1482 1485 1487 1490 1492 1495 1498
1459 1460 1461 1461 1460 1458 1456 1454 1451 1447 1443 1439 1435 1431 1427 1424 1423 1420 1419 1418 1417 1420 1423 1422 1422 1423 1424 1426 1428 1432 1437 1440 1445 1451 1456 1464 1470 1475 1478 1481 1484 1487 1491 1493
1457 1457 1456 1456 1454 1452 1450 1447 1444 1439 1435 1432 1428 1424 1419 1414 1412 1410 1407 1405 1407 1411 1413 1413 1413 1415 1417 1418 1420 1423 1427 1432 1437 1442 1448 1455 1462 1467 1471 1474 1479 1483 1486 1489
1453 1452 1451 1451 1449 1446 1443 1440 1437 1433 1430 1426 1422 1418 1413 1408 1404 1399 1395 1391 1394 1399 1401 1403 1404 1407 1409 1410 1411 1414 1418 1422 1426 1435 1442 1449 1454 1459 1463 1469 1472 1476 1479 1483
1447 1447 1446 1445 1443 1440 1437 1433 1430 1427 1424 1421 1416 1413 1408 1403 1398 1391 1383 1382 1382 1383 1388 1391 1394 1396 1399 1401 1401 1405 1408 1413 1418 1427 1434 1442 1447 1453 1458 1463 1468 1472 1475 1478
1440 1440 1441 1440 1438 1435 1431 1427 1423 1421 1418 1414 1412 1408 1403 1396 1390 1386 1381 1377 1377 1377 1379 1382 1384 1387 1388 1389 1391 1397 1401 1406 1413 1418 1427 1434 1442 1447 1453 1459 1465 1468 1471 1474
1434 1434 1435 1434 1431 1429 1427 1423 1418 1414 1411 1408 1405 1402 1397 1393 1387 1380 1376 1373 1372 1371 1371 1372 1375 1378 1378 1381 1385 1390 1394 1400 1406 1414 1422 1428 1434 1441 1447 1455 1459 1463 1466 1470
1427 1426 1426 1426 1424 1423 1420 1417 1413 1408 1404 1401 1399 1396 1391 1386 1381 1376 1372 1368 1366 1364 1363 1363 1366 1369 1370 1374 1379 1385 1390 1396 1402 1410 1419 1424 1429 1434 1442 1448 1453 1458 1461 1466
1421 1420 1419 1417 1416 1415 1413 1411 1407 1403 1400 1396 1393 1389 1385 1380 1376 1371 1367 1364 1361 1359 1358 1360 1362 1364 1367 1371 1376 1381 1387 1393 1399 1404 1411 1418 1423 1430 1437 1442 1449 1453 1457 1462